CW7395 Weather Reports


time (UTC)temp
C
wind
direction
speed
KPH
gust
KPH
rain 1hr
cm
rain 24hr
cm
rain mn
cm
humidity
%
barometer
mb
20260503211538 16 0 0.0 11.3 0.00 0.00 0.00 63 1013.7
20260503211016 16 0 0.0 11.3 0.00 0.00 0.00 63 1013.6
20260503210516 16 0 0.0 11.3 0.00 0.00 0.00 62 1013.7
20260503210032 16 0 0.0 8.0 0.00 0.00 0.00 63 1013.5
20260503205522 16 0 0.0 6.4 0.00 0.00 0.00 62 1013.6
20260503205014 16 0 0.0 4.8 0.00 0.00 0.00 63 1013.7
20260503204531 16 0 0.0 4.8 0.00 0.00 0.00 61 1013.7
20260503204013 16 0 0.0 9.7 0.00 0.00 0.00 62 1013.7
20260503203513 16 0 0.0 9.7 0.00 0.00 0.00 62 1013.8
20260503203032 16 0 0.0 9.7 0.00 0.00 0.00 60 1013.9
20260503202515 17 0 0.0 8.0 0.00 0.00 0.00 62 1013.8
20260503202015 17 0 0.0 0.0 0.00 0.00 0.00 60 1013.8
20260503201534 16 0 0.0 6.4 0.00 0.00 0.00 60 1013.8
20260503201013 16 0 0.0 6.4 0.00 0.00 0.00 62 1013.8
20260503200515 16 0 0.0 6.4 0.00 0.00 0.00 63 1014.0
20260503200033 16 0 0.0 8.0 0.00 0.00 0.00 64 1013.9
20260503195517 16 0 0.0 8.0 0.00 0.00 0.00 62 1014.0
20260503195014 16 0 0.0 4.8 0.00 0.00 0.00 65 1014.0
20260503194535 16 0 0.0 4.8 0.00 0.00 0.00 63 1014.0
20260503194014 16 0 0.0 0.0 0.00 0.00 0.00 64 1014.0
20260503193516 16 0 0.0 1.6 0.00 0.00 0.00 63 1014.1
20260503193039 16 0 0.0 9.7 0.00 0.00 0.00 63 1014.1
20260503192514 16 0 0.0 9.7 0.00 0.00 0.00 62 1014.0
20260503192015 16 0 0.0 3.2 0.00 0.00 0.00 63 1014.0
20260503191530 16 0 0.0 3.2 0.00 0.00 0.00 63 1014.0
20260503191016 16 0 0.0 11.3 0.00 0.00 0.00 64 1014.0
20260503190515 16 0 0.0 11.3 0.00 0.00 0.00 64 1014.0
20260503190039 16 0 0.0 3.2 0.00 0.00 0.00 65 1014.0
20260503185515 15 0 0.0 6.4 0.00 0.00 0.00 66 1013.9
20260503185016 15 0 0.0 6.4 0.00 0.00 0.00 62 1014.0
20260503184537 16 0 0.0 6.4 0.00 0.00 0.00 62 1014.0
20260503184015 16 0 0.0 3.2 0.00 0.00 0.00 64 1013.9
20260503183513 16 0 0.0 0.0 0.00 0.00 0.00 64 1013.8
20260503183030 15 0 0.0 6.4 0.00 0.00 0.00 66 1013.9
20260503182523 15 0 0.0 6.4 0.00 0.00 0.00 67 1013.9
20260503182017 15 179 0.0 4.8 0.00 0.00 0.00 65 1013.9
20260503181533 15 0 0.0 3.2 0.00 0.00 0.00 66 1013.8
20260503181014 15 0 0.0 0.0 0.00 0.00 0.00 66 1013.8
20260503180514 15 0 0.0 0.0 0.00 0.00 0.00 66 1013.8
20260503180030 15 0 0.0 6.4 0.00 0.00 0.00 67 1013.8
20260503175513 15 0 0.0 6.4 0.00 0.00 0.00 68 1013.8
20260503175013 15 46 0.0 6.4 0.00 0.00 0.00 71 1013.9
20260503174541 15 0 0.0 6.4 0.00 0.00 0.00 73 1014.0
20260503174013 14 0 0.0 9.7 0.00 0.00 0.00 69 1014.0
20260503173515 14 0 0.0 9.7 0.00 0.00 0.00 71 1014.0
20260503173032 14 18 3.2 9.7 0.00 0.00 0.00 69 1013.9
20260503172514 14 0 0.0 6.4 0.00 0.00 0.00 73 1013.9
20260503172014 14 0 0.0 6.4 0.00 0.00 0.00 70 1013.9
20260503171530 13 0 0.0 6.4 0.00 0.00 0.00 71 1013.8
20260503171013 13 0 0.0 0.0 0.00 0.00 0.00 74 1014.0
20260503170514 13 0 0.0 8.0 0.00 0.00 0.00 74 1014.0
20260503151014 12 0 0.0 0.0 0.00 0.00 0.00 88 1013.5
20260503150514 11 0 0.0 0.0 0.00 0.00 0.00 88 1013.5
20260503131013 11 0 0.0 0.0 0.00 0.00 0.00 88 1012.4
20260503130513 11 0 0.0 0.0 0.00 0.00 0.00 88 1012.3
20260503110515 11 0 0.0 0.0 0.00 0.00 0.00 87 1012.3
20260503090513 11 0 0.0 0.0 0.00 0.00 0.00 84 1012.4
20260503081543 12 0 0.0 0.0 0.00 0.00 0.00 83 1012.9
20260503081014 12 0 0.0 0.0 0.00 0.00 0.00 83 1013.1
20260503080515 12 0 0.0 0.0 0.00 0.00 0.00 82 1013.1
20260503072514 12 0 0.0 0.0 0.00 0.00 0.00 82 1013.0
20260503072018 12 0 0.0 0.0 0.00 0.00 0.00 82 1013.0
20260503071541 12 0 0.0 0.0 0.00 0.00 0.00 82 1013.0
20260503071013 12 0 0.0 0.0 0.00 0.00 0.00 82 1013.0
20260503070514 12 0 0.0 0.0 0.00 0.00 0.00 82 1013.0
20260503055014 12 0 0.0 0.0 0.00 0.00 0.00 81 1013.2
20260503054535 12 0 0.0 0.0 0.00 0.00 0.00 81 1013.2
20260503054050 12 0 0.0 0.0 0.00 0.00 0.00 81 1013.3
20260503053512 12 0 0.0 0.0 0.00 0.00 0.00 80 1013.3
20260503053034 12 0 0.0 0.0 0.00 0.00 0.00 80 1013.3
20260503052514 12 0 0.0 0.0 0.00 0.00 0.00 81 1013.3
20260503052018 12 0 0.0 0.0 0.00 0.00 0.00 80 1013.4
20260503051530 12 0 0.0 0.0 0.00 0.00 0.00 80 1013.4
20260503051012 12 0 0.0 0.0 0.00 0.00 0.00 80 1013.4
20260503050513 12 0 0.0 0.0 0.00 0.00 0.00 80 1013.5
20260503050032 12 0 0.0 0.0 0.00 0.00 0.00 80 1013.4
20260503045519 12 0 0.0 0.0 0.00 0.00 0.00 80 1013.4
20260503045016 12 0 0.0 0.0 0.00 0.00 0.00 80 1013.2
20260503044529 12 0 0.0 0.0 0.00 0.00 0.00 80 1013.2
20260503044012 12 0 0.0 0.0 0.00 0.00 0.00 80 1013.2
20260503043512 12 0 0.0 0.0 0.00 0.00 0.00 80 1013.1
20260503043031 12 0 0.0 0.0 0.00 0.00 0.00 80 1013.0
20260503042514 12 0 0.0 0.0 0.00 0.00 0.00 80 1013.0
20260503042014 12 0 0.0 0.0 0.00 0.00 0.00 80 1013.0
20260503041532 12 0 0.0 0.0 0.00 0.00 0.00 80 1013.0
20260503041012 12 0 0.0 0.0 0.00 0.00 0.00 79 1012.9
20260503040516 12 0 0.0 8.0 0.00 0.00 0.00 79 1012.7
20260503040032 12 0 1.6 8.0 0.00 0.00 0.00 79 1012.8
20260503035513 12 0 0.0 1.6 0.00 0.00 0.00 80 1012.6
20260503035014 12 0 0.0 0.0 0.00 0.00 0.00 80 1012.5
20260503034534 12 0 0.0 0.0 0.00 0.00 0.00 80 1012.4
20260503034014 13 0 0.0 0.0 0.00 0.00 0.00 79 1012.4
20260503033514 13 0 0.0 0.0 0.00 0.00 0.00 79 1012.4
20260503033032 13 0 0.0 0.0 0.00 0.00 0.00 79 1012.3
20260503032512 13 0 0.0 0.0 0.00 0.00 0.00 79 1012.3
20260503032012 13 0 0.0 4.8 0.00 0.00 0.00 79 1012.2
20260503031530 13 0 0.0 4.8 0.00 0.00 0.00 79 1012.2
20260503031014 13 0 0.0 4.8 0.00 0.00 0.00 79 1012.2
20260503030517 13 0 0.0 4.8 0.00 0.00 0.00 79 1012.1
20260503030034 13 0 0.0 4.8 0.00 0.00 0.00 79 1012.1
20260503025514 13 71 0.0 4.8 0.00 0.00 0.00 78 1012.1
20260503025015 13 0 0.0 4.8 0.00 0.00 0.00 78 1012.1
20260503024532 13 0 0.0 4.8 0.00 0.00 0.00 78 1012.0
20260503024012 13 0 0.0 6.4 0.00 0.00 0.00 78 1012.0
20260503023513 13 0 0.0 6.4 0.00 0.00 0.00 77 1011.9
20260503023030 14 0 0.0 3.2 0.00 0.00 0.00 77 1011.9
20260503022512 14 0 0.0 0.0 0.00 0.00 0.00 77 1011.9
20260503022014 14 0 0.0 0.0 0.00 0.00 0.00 77 1011.9
20260503021532 14 0 0.0 6.4 0.00 0.00 0.00 77 1011.8
20260503021013 14 0 0.0 6.4 0.00 0.00 0.00 76 1011.9
20260503020513 15 0 0.0 6.4 0.00 0.00 0.00 75 1011.8
20260503020032 15 0 0.0 1.6 0.00 0.00 0.00 75 1011.8
20260503015513 15 0 0.0 1.6 0.00 0.00 0.00 75 1011.8
20260503015014 15 0 0.0 4.8 0.00 0.00 0.00 75 1011.9
20260503014534 15 0 0.0 8.0 0.00 0.00 0.00 75 1011.9
20260503014014 15 0 0.0 9.7 0.00 0.00 0.00 75 1011.9
20260503013514 15 0 0.0 9.7 0.00 0.00 0.00 74 1011.9
20260503013030 15 0 0.0 8.0 0.00 0.00 0.00 74 1011.9
20260503012514 15 0 0.0 6.4 0.00 0.00 0.00 74 1011.9
20260503012019 15 0 0.0 11.3 0.00 0.00 0.00 74 1012.0
20260503011532 15 0 0.0 11.3 0.00 0.00 0.00 73 1012.0
20260503011013 16 0 0.0 12.9 0.00 0.00 0.00 73 1011.8
20260503010514 16 0 1.6 17.7 0.00 0.00 0.00 72 1011.9
20260503010030 16 0 0.0 17.7 0.00 0.00 0.00 72 1011.9
20260503005515 16 0 3.2 17.7 0.00 0.00 0.00 72 1011.8
20260503005016 16 0 1.6 16.1 0.00 0.00 0.00 72 1011.9
20260503004532 16 293 0.0 12.9 0.00 0.00 0.00 72 1011.9
20260503004013 16 0 0.0 17.7 0.00 0.00 0.00 71 1011.9
20260503003514 16 319 1.6 17.7 0.00 0.00 0.00 71 1011.8
20260503003047 16 0 4.8 17.7 0.00 0.00 0.00 70 1011.9
20260503002513 17 0 0.0 17.7 0.00 0.00 0.00 70 1011.8
20260503002013 17 329 1.6 17.7 0.00 0.00 0.00 69 1011.9
20260503001549 17 0 1.6 12.9 0.00 0.00 0.00 69 1011.9
20260503001013 17 279 1.6 9.7 0.00 0.00 0.00 68 1011.9
20260503000515 17 311 0.0 20.9 0.00 0.00 0.00 68 1011.9
20260503000032 17 0 4.8 20.9 0.00 0.00 0.00 68 1011.9
20260502235514 18 5 1.6 16.1 0.00 0.00 0.00 67 1011.8
20260502235013 18 0 3.2 16.1 0.00 0.00 0.00 66 1011.8
20260502234535 18 0 1.6 14.5 0.00 0.00 0.00 65 1011.8
20260502234014 18 305 0.0 11.3 0.00 0.00 0.00 65 1011.8
20260502233514 19 319 0.0 11.3 0.00 0.00 0.00 64 1011.8
20260502233032 19 0 0.0 12.9 0.00 0.00 0.00 65 1011.7
20260502232513 19 0 1.6 12.9 0.00 0.00 0.00 64 1011.8
20260502232015 19 93 0.0 8.0 0.00 0.00 0.00 65 1011.9
20260502231533 19 0 1.6 8.0 0.00 0.00 0.00 64 1011.8
20260502231014 19 0 0.0 4.8 0.00 0.00 0.00 65 1011.9
20260502230519 19 0 0.0 4.8 0.00 0.00 0.00 64 1012.0
20260502230035 19 94 0.0 3.2 0.00 0.00 0.00 66 1012.1
20260502225514 19 0 0.0 3.2 0.00 0.00 0.00 64 1012.2
20260502225016 19 0 0.0 9.7 0.00 0.00 0.00 65 1012.3
20260502224529 19 0 0.0 9.7 0.00 0.00 0.00 64 1012.3
20260502224013 19 194 0.0 9.7 0.00 0.00 0.00 63 1012.4
20260502223513 19 0 0.0 9.7 0.00 0.00 0.00 63 1012.5
20260502223033 20 0 0.0 6.4 0.00 0.00 0.00 62 1012.7
20260502222513 20 0 0.0 6.4 0.00 0.00 0.00 61 1012.7
20260502222014 20 0 0.0 8.0 0.00 0.00 0.00 61 1012.8
20260502221535 20 0 0.0 8.0 0.00 0.00 0.00 59 1012.9
20260502221014 20 0 0.0 8.0 0.00 0.00 0.00 58 1013.1
20260502220514 20 196 0.0 1.6 0.00 0.00 0.00 59 1013.2
20260502220035 21 0 0.0 0.0 0.00 0.00 0.00 58 1013.2
20260502215515 21 0 0.0 8.0 0.00 0.00 0.00 60 1013.4
20260502215013 20 0 0.0 8.0 0.00 0.00 0.00 58 1013.3
20260502214532 20 0 0.0 8.0 0.00 0.00 0.00 60 1013.4
20260502214014 20 0 0.0 4.8 0.00 0.00 0.00 61 1013.4
20260502213515 20 0 0.0 0.0 0.00 0.00 0.00 64 1013.6
20260502213030 20 0 0.0 3.2 0.00 0.00 0.00 63 1013.6
20260502212514 19 0 0.0 8.0 0.00 0.00 0.00 64 1013.6
20260502212018 19 0 0.0 8.0 0.00 0.00 0.00 68 1013.7